sat.trackr.live / text

‹ back to catalog

ONEWEB-0411

NORAD 51623 · 2022-012B

PAYLOAD ACTIVE UNKNOWN

§ Identity

Operator
Country
UK
Launch date
2022-02-10
Launch site
FRGUI
Launch vehicle
Mass (kg)
RCS (m²)

Purposes: comms

External: N2YO · Heavens-Above · Gunter

§ Orbital elements

Epoch: 2026-09-20T01:52:55.818048Z

Period
109.89 min
Inclination
87.8906°
Eccentricity
0.0001278
Mean motion
13.10372776 rev/d
Perigee alt
1,220.7 km
Apogee alt
1,222.7 km
Semi-major
7,599.9 km
B*
1.9278e-3
RAAN
17.3818°
Arg perigee
91.8388°
Mean anomaly
268.2886°
Rev number
22,171

§ Raw data

ONEWEB-04111 51623U 22012B   26263.07842382  .00000686  00000+0  19278-2 0  99952 51623  87.8906  17.3818 0001278  91.8388 268.2886 13.10372776221710

JSON: /api/v1/satellites/51623 · /tle

For live sub-satellite position, see the globe view (requires WebGL).

§ Visibility from observer

Set your observer location to see the next 7 days of passes ≥ 10°. The values pass through the URL so the page stays shareable.

No JS? Fill the form by hand. The geolocation button needs JavaScript.